Location: Detroit
(42.3310°N, 83.0460°W)
Time: 05:30:53
(UTC-05:00)

BlueWalker 3 - Pass Details

Date: 02 December 2022
Orbit: 499 x 517 km, 53.2° (Epoch: 01 February)

Event Time Altitude Azimuth Distance (km) Brightness Sun altitude
Rises 19:00:13 0° 305° (NW) 2,626 6.3 -21.5°
Reaches altitude 10° 19:03:00 10° 325° (NW) 1,734 4.9 -22.1°
Enters shadow 19:04:47 17° 350° (N) 1,367 4.1 -22.4°
